Weather History for Andalusia, AL

Change the Weather History Date:

Saturday, January 19, 2013

  Actual Average (KCEW) Record (KCEW)
Temperature  
Mean Temperature 48 °F -  
Max Temperature 61 °F 59 °F 79 °F (1952)
Min Temperature 35 °F 37 °F 10 °F (1977)
Degree Days  
Heating Degree Days 17    
Moisture  
Dew Point 36 °F    
Average Humidity 62    
Maximum Humidity 83    
Minimum Humidity 39    
Precipitation  
Precipitation 0.00 in - - ()
Sea Level Pressure  
Sea Level Pressure 30.32 in    
Wind  
Wind Speed 1 mph (ESE)    
Max Wind Speed 6 mph    
Max Gust Speed -    
Visibility 10 miles    
Events      
Averages and records for this station are not official NWS values.
T = Trace of Precipitation, MM = Missing Value Source: NWS Daily Summary

Daily Weather History Graph

Daily Weather History Graph

Search for Another Location

Airport:

Trip Planner

Search our weather history database for the weather conditions in past years. The results will help you decide how hot, cold, wet, or windy it might be!

Date:

Astronomy

Jan. 19, 2013 Rise Set
Actual Time 6:43 AM CST 5:09 PM CST
Civil Twilight 6:17 AM CST 5:35 PM CST
Nautical Twilight 5:48 AM CST 6:04 PM CST
Astronomical Twilight 5:19 AM CST 6:33 PM CST
Moon 11:30 AM CST (1/19) 12:23 AM CST (1/19)
Length of Visible Light 11h 17m
Length of Day
10h 25m
First Quarter, 57% of the Moon is Illuminated
Jan 19
First Quarter
Jan 26
Full
Feb 3
Last Quarter
Feb 10
New
Feb 17
First Quarter

Hourly Weather History & Observations

Time (CST) Temp. Windchill Dew Point Humidity Pressure Visibility Wind Dir Wind Speed Gust Speed Precip Events Conditions
12:56 AM 39.9 °F 37.8 °F 30.9 °F 70% 30.37 in 10.0 mi ESE 3.5 mph - N/A   Clear
1:56 AM 41.0 °F - 30.0 °F 65% 30.37 in 10.0 mi Calm Calm - N/A   Clear
2:56 AM 37.9 °F - 30.0 °F 73% 30.38 in 10.0 mi Calm Calm - N/A   Clear
3:56 AM 36.0 °F - 30.0 °F 79% 30.37 in 10.0 mi Calm Calm - N/A   Clear
4:56 AM 36.0 °F - 28.9 °F 76% 30.37 in 10.0 mi Calm Calm - N/A   Clear
5:56 AM 35.1 °F - 28.9 °F 78% 30.39 in 10.0 mi Calm Calm - N/A   Partly Cloudy
6:56 AM 37.0 °F - 28.9 °F 73% 30.40 in 10.0 mi Calm Calm - N/A   Clear
7:56 AM 41.0 °F 39.0 °F 32.0 °F 70% 30.41 in 10.0 mi East 3.5 mph - N/A   Overcast
8:56 AM 48.0 °F - 32.0 °F 54% 30.42 in 10.0 mi ESE 5.8 mph - N/A   Clear
9:56 AM 51.1 °F - 30.0 °F 44% 30.41 in 10.0 mi ESE 5.8 mph - N/A   Overcast
10:56 AM 55.9 °F - 30.9 °F 39% 30.38 in 10.0 mi Variable 3.5 mph - N/A   Overcast
11:56 AM 59.0 °F - 34.0 °F 39% 30.33 in 10.0 mi Calm Calm - N/A   Overcast
12:56 PM 60.1 °F - 36.0 °F 41% 30.30 in 10.0 mi Calm Calm - N/A   Overcast
1:56 PM 61.0 °F - 37.0 °F 41% 30.28 in 10.0 mi Calm Calm - N/A   Mostly Cloudy
2:56 PM 61.0 °F - 37.9 °F 42% 30.26 in 10.0 mi Calm Calm - N/A   Mostly Cloudy
3:56 PM 61.0 °F - 37.9 °F 42% 30.25 in 10.0 mi Calm Calm - N/A   Overcast
4:56 PM 60.1 °F - 41.0 °F 49% 30.26 in 10.0 mi Calm Calm - N/A   Overcast
5:56 PM 57.0 °F - 44.1 °F 62% 30.26 in 10.0 mi Calm Calm - N/A   Overcast
6:56 PM 55.9 °F - 46.0 °F 69% 30.26 in 10.0 mi Calm Calm - N/A   Overcast
7:56 PM 55.0 °F - 45.0 °F 69% 30.27 in 10.0 mi Calm Calm - N/A   Overcast
8:56 PM 54.0 °F - 44.1 °F 69% 30.27 in 10.0 mi Calm Calm - N/A   Overcast
9:56 PM 51.1 °F - 43.0 °F 74% 30.25 in 10.0 mi Calm Calm - N/A   Clear
10:56 PM 48.0 °F - 42.1 °F 80% 30.25 in 10.0 mi Calm Calm - N/A   Clear
11:56 PM 46.9 °F - 42.1 °F 83% 30.24 in 10.0 mi Calm Calm - N/A   Partly Cloudy